International Falls, MN

6:50 PM CDT on July 20, 2017 (GMT -0500)
Falls International

Weather History for KINL - September, 2013

Change the Weather History Date:

Sunday, September 1, 2013

  Actual Average Record
Temperature  
Mean Temperature 57 °F 60 °F  
Max Temperature 62 °F 72 °F 90 °F (1913)
Min Temperature 52 °F 47 °F 32 °F (1909)
Degree Days  
Heating Degree Days 8 7  
Month to date heating degree days 8 7  
Since 1 July heating degree days 228 188  
Cooling Degree Days 0 1  
Month to date cooling degree days 0 1  
Year to date cooling degree days 213 182  
Growing Degree Days 8 (Base 50)    
Moisture  
Dew Point 54 °F    
Average Humidity 86    
Maximum Humidity 100    
Minimum Humidity 72    
Precipitation  
Precipitation 0.04 in 0.10 in 3.34 in (1973)
Month to date precipitation 0.04 0.10  
Year to date precipitation 25.15 17.06  
Snow  
Snow 0.00 in 0.00 in 0.00 in (2002)
Month to date snowfall 0.0 0.0  
Since 1 July snowfall 0.0 0.0  
Since 1 September snowfall 0.0 0.0  
Snow Depth 0.00 in    
Sea Level Pressure  
Sea Level Pressure 29.87 in    
Wind  
Wind Speed 9 mph (NW)    
Max Wind Speed 20 mph    
Max Gust Speed 26 mph    
Visibility 10 miles    
Events Rain    
T = Trace of Precipitation, MM = Missing Value Source: NWS Daily Summary

Daily Weather History Graph

Daily Weather History Graph

Search for Another Location

Airport or City:

Trip Planner

Search our weather history database for the weather conditions in past years. The results will help you decide how hot, cold, wet, or windy it might be!

Date:

Astronomy

Sep. 01, 2013 Rise Set
Actual Time 6:31 AM CDT 7:54 PM CDT
Civil Twilight 5:58 AM CDT 8:27 PM CDT
Nautical Twilight 5:18 AM CDT 9:06 PM CDT
Astronomical Twilight 4:36 AM CDT 9:49 PM CDT
Moon 2:41 AM CDT (9/1) 5:42 PM CDT (9/1)
Length of Visible Light 14h 28m
Length of Day
13h 23m
Waning Crescent, 13% of the Moon is Illuminated
Sep 1
Waning Crescent
Sep 5
New
Sep 12
First Quarter
Sep 19
Full
Sep 26
Last Quarter

Hourly Weather History & Observations

Time (CDT) Temp. Dew Point Humidity Pressure Visibility Wind Dir Wind Speed Gust Speed Precip Events Conditions
12:55 AM 57.9 °F 57.0 °F 97% 29.71 in 10.0 mi WNW 5.8 mph - N/A   Partly Cloudy
1:55 AM 59.0 °F 57.0 °F 93% 29.72 in 10.0 mi West 5.8 mph - N/A   Mostly Cloudy
2:55 AM 59.0 °F 57.9 °F 96% 29.70 in 10.0 mi WNW 4.6 mph - N/A   Scattered Clouds
3:55 AM 59.0 °F 57.9 °F 96% 29.72 in 10.0 mi West 4.6 mph - N/A   Partly Cloudy
4:26 AM 59.0 °F 57.2 °F 94% 29.73 in 10.0 mi West 4.6 mph - N/A   Mostly Cloudy
4:55 AM 60.1 °F 59.0 °F 96% 29.74 in 10.0 mi WNW 6.9 mph - N/A   Overcast
5:19 AM 60.8 °F 59.0 °F 94% 29.74 in 10.0 mi WNW 4.6 mph - N/A   Overcast
5:39 AM 60.8 °F 59.0 °F 94% 29.74 in 10.0 mi WNW 3.5 mph - N/A   Overcast
5:55 AM 61.0 °F 60.1 °F 97% 29.75 in 10.0 mi WNW 6.9 mph - N/A   Overcast
6:55 AM 62.1 °F 61.0 °F 96% 29.77 in 10.0 mi WNW 5.8 mph - N/A   Overcast
7:19 AM 62.6 °F 60.8 °F 94% 29.78 in 7.0 mi WNW 13.8 mph - 0.02 in Rain Light Rain
7:43 AM 60.8 °F 57.2 °F 88% 29.79 in 9.0 mi NNW 15.0 mph - 0.03 in   Overcast
7:55 AM 59.0 °F 57.0 °F 93% 29.80 in 10.0 mi NNW 17.3 mph 21.9 mph 0.03 in   Overcast
8:10 AM 57.2 °F 55.4 °F 94% 29.81 in 10.0 mi NNW 17.3 mph 26.5 mph N/A   Overcast
8:17 AM 57.2 °F 53.6 °F 88% 29.82 in 10.0 mi NNW 13.8 mph 26.5 mph N/A   Overcast
8:53 AM 55.4 °F 53.6 °F 94% 29.84 in 2.5 mi NNW 16.1 mph - N/A   Overcast
8:55 AM 55.9 °F 54.0 °F 93% 29.84 in 3.0 mi NNW 13.8 mph - N/A   Overcast
9:06 AM 55.4 °F 53.6 °F 94% 29.84 in 10.0 mi NNW 11.5 mph 19.6 mph N/A   Overcast
9:55 AM 55.9 °F 53.1 °F 90% 29.88 in 10.0 mi NNW 13.8 mph - N/A   Overcast
10:28 AM 55.4 °F 51.8 °F 88% 29.88 in 10.0 mi North 15.0 mph - N/A   Overcast
10:44 AM 55.4 °F 51.8 °F 88% 29.88 in 10.0 mi NNW 13.8 mph - N/A   Overcast
10:55 AM 55.9 °F 51.1 °F 84% 29.90 in 10.0 mi North 13.8 mph - N/A   Overcast
11:55 AM 57.9 °F 51.1 °F 78% 29.92 in 10.0 mi North 12.7 mph 19.6 mph 0.00 in   Overcast
12:55 PM 57.9 °F 52.0 °F 81% 29.94 in 10.0 mi NNW 11.5 mph - N/A   Overcast
1:55 PM 61.0 °F 52.0 °F 72% 29.95 in 10.0 mi NNW 11.5 mph 19.6 mph N/A   Overcast
2:55 PM 61.0 °F 51.1 °F 70% 29.96 in 10.0 mi NNW 13.8 mph 18.4 mph N/A   Overcast
3:55 PM 59.0 °F 52.0 °F 78% 29.97 in 10.0 mi NNW 10.4 mph - 0.00 in Rain Light Rain
4:55 PM 57.9 °F 52.0 °F 81% 29.98 in 10.0 mi NW 8.1 mph - 0.00 in   Overcast
5:55 PM 57.9 °F 51.1 °F 78% 30.00 in 10.0 mi NNW 10.4 mph - 0.00 in   Overcast
6:19 PM 57.2 °F 51.8 °F 82% 29.98 in 10.0 mi North 10.4 mph 18.4 mph N/A   Overcast
6:27 PM 57.2 °F 50.0 °F 77% 29.98 in 10.0 mi North 13.8 mph 18.4 mph N/A   Overcast
6:55 PM 57.0 °F 48.9 °F 74% 30.00 in 10.0 mi NNW 9.2 mph - N/A   Overcast
7:05 PM 57.2 °F 48.2 °F 72% 29.99 in 10.0 mi NNW 10.4 mph - N/A   Overcast
7:12 PM 57.2 °F 48.2 °F 72% 29.99 in 10.0 mi NNW 10.4 mph - N/A   Overcast
7:55 PM 55.9 °F 48.9 °F 77% 30.01 in 10.0 mi NNW 11.5 mph - N/A   Overcast
8:55 PM 55.0 °F 50.0 °F 83% 30.03 in 10.0 mi NNW 9.2 mph - N/A   Overcast
9:55 PM 54.0 °F 50.0 °F 86% 30.05 in 10.0 mi NNW 8.1 mph - 0.00 in Rain Light Rain
10:55 PM 54.0 °F 48.9 °F 83% 30.06 in 10.0 mi North 8.1 mph - 0.00 in   Overcast
11:55 PM 53.1 °F 51.1 °F 93% 30.06 in 4.0 mi NNW 8.1 mph - 0.00 in Rain Light Rain